Weather History for KOKB - October, 2012

Change the Weather History Date:

Saturday, October 20, 2012

  Actual Average Record
Temperature  
Mean Temperature 68 °F 62 °F  
Max Temperature 70 °F 73 °F 88 °F (1999)
Min Temperature 65 °F 51 °F 41 °F (2013)
Degree Days  
Heating Degree Days 0 3  
Month to date heating degree days 7 40  
Since 1 July heating degree days 9 55  
Cooling Degree Days 3 0  
Month to date cooling degree days 52 18  
Year to date cooling degree days 628 412  
Growing Degree Days 16 (Base 50)    
Moisture  
Dew Point 62 °F    
Average Humidity 85    
Maximum Humidity 93    
Minimum Humidity 76    
Precipitation  
Precipitation 0.01 in 0.02 in 1.62 in (2004)
Month to date precipitation 0.87 0.36  
Year to date precipitation 5.93 10.14  
Since 1 July precipitation 0.93 0.87  
Snow  
Snow 0.00 in - - ()
Month to date snowfall 0.0  
Year to date snowfall 0.0  
Since 1 July snowfall 0.0  
Snow Depth 0.00 in    
Sea Level Pressure  
Sea Level Pressure 29.88 in    
Wind  
Wind Speed 3 mph (SSW)    
Max Wind Speed 18 mph    
Max Gust Speed 28 mph    
Visibility 5 miles    
Events Rain    
T = Trace of Precipitation, MM = Missing Value Source: NWS Daily Summary

Daily Weather History Graph

Daily Weather History Graph

Search for Another Location

Airport or City:

Trip Planner

Search our weather history database for the weather conditions in past years. The results will help you decide how hot, cold, wet, or windy it might be!

Date:

Astronomy

Oct. 20, 2012 Rise Set
Actual Time 6:58 AM PDT 6:09 PM PDT
Civil Twilight 6:33 AM PDT 6:34 PM PDT
Nautical Twilight 6:04 AM PDT 7:03 PM PDT
Astronomical Twilight 5:35 AM PDT 7:32 PM PDT
Moon 12:29 PM PDT (10/20) 11:08 PM PDT (10/20)
Length of Visible Light 12h 01m
Length of Day
11h 11m
Waxing Crescent, 35% of the Moon is Illuminated
Oct 20
Waxing Crescent
Oct 21
First Quarter
Oct 29
Full
Nov 6
Last Quarter
Nov 13
New

Hourly Weather History & Observations

Time (PDT) Temp. Dew Point Humidity Pressure Visibility Wind Dir Wind Speed Gust Speed Precip Events Conditions
12:52 AM 66.9 °F 62.1 °F 84% 29.89 in 8.0 mi Calm Calm - N/A   Overcast
1:52 AM 66.9 °F 62.1 °F 84% 29.88 in 3.0 mi SSW 3.5 mph - N/A   Haze
2:52 AM 66.9 °F 61.0 °F 81% 29.88 in 3.0 mi SW 3.5 mph - N/A   Haze
3:52 AM 66.9 °F 61.0 °F 81% 29.87 in 5.0 mi Calm Calm - N/A   Haze
4:52 AM 66.0 °F 61.0 °F 84% 29.87 in 3.0 mi Calm Calm - N/A   Haze
5:52 AM 66.0 °F 62.1 °F 87% 29.88 in 5.0 mi Calm Calm - N/A   Overcast
6:29 AM 66.2 °F 62.6 °F 88% 29.88 in 4.0 mi SSW 3.5 mph - 0.00 in Rain Light Rain
6:42 AM 64.4 °F 62.6 °F 94% 29.88 in 5.0 mi SSW 4.6 mph - 0.01 in Rain Light Rain
6:50 AM 64.4 °F 62.6 °F 94% 29.88 in 5.0 mi SSW 3.5 mph - 0.01 in   Overcast
6:52 AM 64.9 °F 62.1 °F 90% 29.88 in 5.0 mi SSW 3.5 mph - 0.01 in   Overcast
7:17 AM 64.4 °F 62.6 °F 94% 29.89 in 5.0 mi Calm Calm - N/A   Overcast
7:52 AM 66.0 °F 62.1 °F 87% 29.90 in 5.0 mi Calm Calm - N/A   Overcast
8:52 AM 66.0 °F 62.1 °F 87% 29.91 in 2.5 mi South 3.5 mph - 0.00 in Rain Light Rain
9:07 AM 64.4 °F 62.6 °F 94% 29.92 in 4.0 mi Calm Calm - 0.00 in   Overcast
9:38 AM 66.2 °F 62.6 °F 88% 29.92 in 4.0 mi Calm Calm - 0.00 in   Overcast
9:52 AM 66.0 °F 63.0 °F 90% 29.92 in 2.5 mi SW 4.6 mph - 0.00 in Rain Light Rain
10:20 AM 66.2 °F 62.6 °F 88% 29.92 in 3.0 mi SW 6.9 mph - 0.00 in   Overcast
10:40 AM 64.4 °F 62.6 °F 94% 29.92 in 3.0 mi SSW 5.8 mph - 0.00 in   Overcast
10:49 AM 64.4 °F 62.6 °F 94% 29.91 in 3.0 mi SSW 4.6 mph - 0.00 in   Overcast
11:23 AM 66.2 °F 62.6 °F 88% 29.91 in 6.0 mi Variable 3.5 mph - N/A   Overcast
11:35 AM 66.2 °F 62.6 °F 88% 29.91 in 5.0 mi SW 4.6 mph - N/A   Overcast
11:44 AM 66.2 °F 62.6 °F 88% 29.91 in 3.0 mi SSW 5.8 mph - N/A   Overcast
11:49 AM 66.2 °F 62.6 °F 88% 29.90 in 2.0 mi SSW 4.6 mph - N/A   Overcast
11:52 AM 66.0 °F 63.0 °F 90% 29.90 in 2.0 mi SSW 4.6 mph - N/A   Overcast
11:59 AM 66.2 °F 62.6 °F 88% 29.90 in 2.0 mi SW 4.6 mph - N/A   Overcast
12:06 PM 66.2 °F 62.6 °F 88% 29.90 in 3.0 mi SSW 4.6 mph - N/A   Overcast
12:21 PM 66.2 °F 62.6 °F 88% 29.89 in 6.0 mi SSW 3.5 mph - N/A   Overcast
12:47 PM 68.0 °F 62.6 °F 83% 29.87 in 10.0 mi North - - N/A   Overcast
12:52 PM 69.1 °F 63.0 °F 81% 29.87 in 10.0 mi North - - N/A   Overcast
1:31 PM 69.8 °F 62.6 °F 78% 29.86 in 10.0 mi SSW 9.2 mph - N/A   Overcast
1:45 PM 68.0 °F 62.6 °F 83% 29.85 in 10.0 mi WSW 8.1 mph - N/A   Overcast
2:52 PM 66.9 °F 61.0 °F 81% 29.84 in 10.0 mi SSW 8.1 mph - N/A   Overcast
3:31 PM 68.0 °F 60.8 °F 78% 29.84 in 10.0 mi SSW 6.9 mph - N/A   Overcast
3:52 PM 68.0 °F 61.0 °F 78% 29.84 in 10.0 mi SSW 4.6 mph - N/A   Overcast
4:52 PM 66.9 °F 61.0 °F 81% 29.84 in 10.0 mi SW 6.9 mph - N/A   Overcast
5:52 PM 66.9 °F 61.0 °F 81% 29.84 in 10.0 mi SW 4.6 mph - N/A   Overcast
6:52 PM 66.0 °F 62.1 °F 87% 29.84 in 5.0 mi SSW 4.6 mph - 0.01 in Rain Light Rain
7:52 PM 64.9 °F 62.1 °F 90% 29.85 in 9.0 mi SSW 3.5 mph - 0.00 in   Overcast
8:23 PM 64.4 °F 62.6 °F 94% 29.85 in 10.0 mi SW 6.9 mph - N/A   Overcast
8:39 PM 64.4 °F 60.8 °F 88% 29.86 in 4.0 mi SSW 8.1 mph - N/A   Overcast
8:45 PM 64.4 °F 62.6 °F 94% 29.86 in 2.5 mi SSW 5.8 mph - 0.00 in Rain Light Rain
9:08 PM 64.4 °F 62.6 °F 94% 29.87 in 2.5 mi SSW 5.8 mph - 0.00 in Rain Light Rain
9:24 PM 64.4 °F 60.8 °F 88% 29.87 in 6.0 mi SSW 3.5 mph - 0.01 in   Overcast
9:35 PM 64.4 °F 60.8 °F 88% 29.87 in 6.0 mi SSW 5.8 mph - 0.01 in   Overcast
9:52 PM 64.0 °F 61.0 °F 90% 29.87 in 9.0 mi South 5.8 mph - 0.01 in   Overcast
10:29 PM 64.4 °F 62.6 °F 94% 29.88 in 10.0 mi South 4.6 mph - N/A   Overcast
10:41 PM 64.4 °F 60.8 °F 88% 29.88 in 5.0 mi South 5.8 mph - N/A   Overcast
10:52 PM 64.0 °F 61.0 °F 90% 29.88 in 3.0 mi South 4.6 mph - N/A   Overcast
11:00 PM 64.4 °F 60.8 °F 88% 29.88 in 2.0 mi South 4.6 mph - 0.00 in Rain Light Rain
11:14 PM 64.4 °F 60.8 °F 88% 29.88 in 1.8 mi South 3.5 mph - 0.01 in Rain Light Rain
11:22 PM 64.4 °F 60.8 °F 88% 29.88 in 3.0 mi Calm Calm - 0.01 in Rain Light Rain
11:41 PM 64.4 °F 62.6 °F 94% 29.88 in 6.0 mi Calm Calm - 0.01 in Rain Light Rain